DW3478 Weather Reports


time (UTC)temp
C
wind
direction
speed
KPH
gust
KPH
rain 1hr
cm
rain 24hr
cm
rain mn
cm
humidity
%
barometer
mb
20260904112306 24 255 4.8 9.7 0.00 0.00 0.00 72 1022.0
20260904111805 23 242 6.4 9.7 0.00 0.00 0.00 72 1022.0
20260904111306 23 201 6.4 12.9 0.00 0.00 0.00 73 1022.0
20260904101805 23 182 4.8 9.7 0.00 0.00 0.00 74 1022.0
20260904101306 23 149 8.0 14.5 0.00 0.00 0.00 76 1022.0
20260904100805 22 180 8.0 14.5 0.00 0.00 0.00 75 1021.0
20260904095805 22 98 9.7 14.5 0.00 0.00 0.00 75 1021.0
20260904094805 23 134 8.0 14.5 0.00 0.00 0.00 75 1021.0
20260904094305 22 169 8.0 16.1 0.00 0.00 0.00 75 1021.0
20260904093805 23 163 6.4 16.1 0.00 0.00 0.00 74 1021.0
20260904093305 23 170 8.0 11.3 0.00 0.00 0.00 74 1021.0
20260904092805 22 92 8.0 14.5 0.00 0.00 0.00 75 1021.0
20260904092306 22 120 8.0 14.5 0.00 0.00 0.00 76 1021.0
20260904085805 22 155 8.0 14.5 0.00 0.00 0.00 76 1021.0
20260904085306 22 111 8.0 14.5 0.00 0.00 0.00 76 1021.0
20260904083805 22 120 4.8 9.7 0.00 0.00 0.00 75 1021.0
20260904082805 22 41 8.0 12.9 0.00 0.00 0.00 75 1021.0
20260904082306 22 88 8.0 11.3 0.00 0.00 0.00 75 1021.0
20260904074305 20 56 3.2 9.7 0.00 0.00 0.00 79 1021.0
20260904072306 19 44 3.2 4.8 0.00 0.00 0.00 81 1021.0
20260904071805 18 44 0.0 3.2 0.00 0.00 0.00 81 1021.0
20260904071305 18 66 0.0 0.0 0.00 0.00 0.00 81 1021.0
20260904070805 18 53 0.0 0.0 0.00 0.00 0.00 81 1021.0
20260904070305 18 43 0.0 0.0 0.00 0.00 0.00 80 1021.0
20260904065805 18 55 0.0 0.0 0.00 0.00 0.00 80 1021.0
20260904064805 18 42 0.0 0.0 0.00 0.00 0.00 81 1021.0
20260904064305 18 39 0.0 0.0 0.00 0.00 0.00 81 1021.0
20260904063806 18 37 0.0 0.0 0.00 0.00 0.00 82 1021.0
20260904062805 18 42 0.0 0.0 0.00 0.00 0.00 82 1021.0
20260904062306 18 28 0.0 0.0 0.00 0.00 0.00 82 1021.0
20260904061805 18 26 0.0 0.0 0.00 0.00 0.00 82 1021.0
20260904061305 18 36 0.0 0.0 0.00 0.00 0.00 82 1021.0
20260904060805 18 28 0.0 0.0 0.00 0.00 0.00 82 1020.0
20260904060305 19 355 0.0 0.0 0.00 0.00 0.00 82 1020.0
20260904054804 19 16 0.0 0.0 0.00 0.00 0.00 82 1020.0
20260904054305 19 296 0.0 0.0 0.00 0.00 0.00 81 1020.0
20260904053805 19 340 0.0 0.0 0.00 0.00 0.00 81 1020.0
20260904053305 19 330 0.0 0.0 0.00 0.00 0.00 81 1020.0
20260904052805 19 339 0.0 0.0 0.00 0.00 0.00 80 1020.0
20260904052307 19 342 0.0 0.0 0.00 0.00 0.00 80 1020.0
20260904051804 20 329 0.0 0.0 0.00 0.00 0.00 80 1020.0
20260904051305 20 357 0.0 0.0 0.00 0.00 0.00 80 1020.0
20260904050805 20 14 0.0 0.0 0.00 0.00 0.00 80 1020.0
20260904042805 21 312 0.0 0.0 0.00 0.00 0.00 81 1020.0
20260904042306 21 39 0.0 0.0 0.00 0.00 0.00 81 1020.0
20260904040305 21 289 0.0 4.8 0.00 0.00 0.00 81 1020.0
20260904035805 21 357 0.0 3.2 0.00 0.00 0.00 81 1020.0
20260904033805 21 288 0.0 1.6 0.00 0.00 0.00 81 1021.0
20260904033305 21 325 0.0 1.6 0.00 0.00 0.00 81 1021.0
20260904032805 21 355 0.0 1.6 0.00 0.00 0.00 81 1021.0
20260904032306 21 335 1.6 4.8 0.00 0.00 0.00 81 1021.0
20260904030805 21 304 1.6 4.8 0.00 0.00 0.00 81 1021.0
20260904023805 21 332 0.0 3.2 0.00 0.00 0.00 81 1021.0
20260904023305 21 329 0.0 1.6 0.00 0.00 0.00 81 1021.0
20260904022805 21 1 0.0 1.6 0.00 0.00 0.00 81 1021.0
20260904020805 21 355 0.0 0.0 0.00 0.00 0.00 81 1022.0
20260904015306 21 36 0.0 3.2 0.00 0.00 0.00 81 1022.0
20260904014304 21 291 0.0 0.0 0.00 0.00 0.00 81 1022.0
20260904013805 21 313 0.0 0.0 0.00 0.00 0.00 81 1022.0
20260904011804 21 305 0.0 1.6 0.00 0.00 0.00 81 1022.0
20260904011305 21 140 0.0 1.6 0.00 0.00 0.00 82 1022.0
20260904004304 21 77 0.0 4.8 0.00 0.00 0.00 82 1022.0
20260904002805 21 163 0.0 1.6 0.00 0.00 0.00 82 1022.0
20260904002306 21 163 1.6 3.2 0.00 0.00 0.00 82 1022.0
20260904001305 21 122 0.0 1.6 0.00 0.00 0.00 82 1022.0
20260904000804 21 113 0.0 1.6 0.00 0.00 0.00 82 1022.0
20260903235804 21 195 1.6 4.8 0.00 0.00 0.00 82 1022.0
20260903235306 21 220 0.0 3.2 0.00 0.00 0.00 82 1022.0
20260903234805 21 61 0.0 0.0 0.00 0.00 0.00 82 1022.0
20260903234305 21 61 0.0 1.6 0.00 0.00 0.00 82 1022.0
20260903233305 21 82 1.6 4.8 0.00 0.00 0.00 82 1022.0
20260903232805 21 116 1.6 8.0 0.00 0.00 0.00 82 1022.0
20260903232306 21 142 3.2 8.0 0.00 0.00 0.00 83 1022.0
20260903231804 21 185 1.6 4.8 0.00 0.00 0.00 83 1022.0
20260903224805 21 199 0.0 1.6 0.00 0.00 0.00 83 1022.0
20260903224304 21 186 0.0 3.2 0.00 0.00 0.00 83 1022.0
20260903223805 21 186 0.0 1.6 0.00 0.00 0.00 83 1022.0
20260903221804 21 171 0.0 4.8 0.00 0.00 0.00 83 1022.0
20260903221305 21 182 1.6 3.2 0.00 0.00 0.00 83 1022.0
20260903220804 21 162 0.0 4.8 0.00 0.00 0.00 83 1022.0
20260903214304 21 187 1.6 4.8 0.00 0.00 0.00 83 1022.0
20260903213304 21 198 0.0 4.8 0.00 0.00 0.00 83 1021.0
20260903212804 22 186 1.6 4.8 0.00 0.00 0.00 83 1021.0
20260903212306 22 191 3.2 4.8 0.00 0.00 0.00 83 1021.0
20260903211805 22 198 3.2 4.8 0.00 0.00 0.00 83 1021.0
20260903210304 22 150 4.8 4.8 0.00 0.00 0.00 82 1021.0
20260903201804 22 137 3.2 8.0 0.00 0.00 0.00 82 1021.0
20260903201305 22 134 4.8 9.7 0.00 0.00 0.00 82 1021.0
20260903200804 22 139 4.8 11.3 0.00 0.00 0.00 82 1020.0
20260903200305 22 124 6.4 9.7 0.00 0.00 0.00 82 1020.0
20260903195306 22 156 4.8 9.7 0.00 0.00 0.00 82 1020.0
20260903194805 22 138 6.4 9.7 0.00 0.00 0.00 82 1020.0
20260903193804 22 112 6.4 14.5 0.00 0.00 0.00 82 1020.0
20260903193305 22 126 8.0 14.5 0.00 0.00 0.00 81 1020.0
20260903191805 22 96 9.7 14.5 0.00 0.00 0.00 81 1020.0
20260903191304 22 114 8.0 16.1 0.00 0.00 0.00 81 1020.0
20260903190805 22 87 6.4 19.3 0.00 0.00 0.00 80 1020.0
20260903182306 23 136 11.3 22.5 0.00 0.00 0.00 75 1020.0
20260903181805 23 126 12.9 22.5 0.00 0.00 0.00 74 1020.0
20260903173304 25 121 12.9 22.5 0.00 0.00 0.00 68 1020.0
20260903172805 25 139 14.5 24.1 0.00 0.00 0.00 67 1020.0
20260903172306 25 137 14.5 22.5 0.00 0.00 0.00 63 1020.0
20260903171804 26 100 14.5 22.5 0.00 0.00 0.00 61 1020.0
20260903171305 26 108 14.5 25.7 0.00 0.00 0.00 61 1020.0
20260903170804 26 117 9.7 19.3 0.00 0.00 0.00 59 1020.0
20260903170304 26 134 11.3 20.9 0.00 0.00 0.00 60 1020.0
20260903165804 26 121 12.9 27.4 0.00 0.00 0.00 59 1020.0
20260903165306 26 131 12.9 22.5 0.00 0.00 0.00 58 1020.0
20260903164304 26 141 12.9 22.5 0.00 0.00 0.00 59 1020.0
20260903162804 27 131 16.1 22.5 0.00 0.00 0.00 58 1020.0
20260903155805 27 154 11.3 19.3 0.00 0.00 0.00 57 1020.0
20260903155306 27 135 6.4 16.1 0.00 0.00 0.00 57 1020.0
20260903154304 27 154 8.0 16.1 0.00 0.00 0.00 57 1020.0
20260903153805 28 132 8.0 12.9 0.00 0.00 0.00 56 1020.0
20260903153304 28 145 9.7 16.1 0.00 0.00 0.00 56 1020.0
20260903152804 28 129 8.0 19.3 0.00 0.00 0.00 57 1020.0
20260903152306 28 144 6.4 11.3 0.00 0.00 0.00 56 1020.0
20260903151306 27 165 8.0 11.3 0.00 0.00 0.00 59 1020.0
20260903150806 27 200 4.8 14.5 0.00 0.00 0.00 58 1020.0
20260903145306 30 267 1.6 8.0 0.00 0.00 0.00 56 1020.0
20260903134806 28 300 1.6 4.8 0.00 0.00 0.00 57 1020.0
20260903134305 27 297 3.2 8.0 0.00 0.00 0.00 57 1020.0
20260903133806 28 294 1.6 11.3 0.00 0.00 0.00 58 1020.0
20260903132805 27 299 3.2 16.1 0.00 0.00 0.00 58 1020.0
20260903132306 27 290 3.2 16.1 0.00 0.00 0.00 58 1020.0
20260903123305 26 300 3.2 14.5 0.00 0.00 0.00 63 1021.0
20260903122806 27 317 3.2 8.0 0.00 0.00 0.00 62 1021.0
20260903121305 27 314 3.2 4.8 0.00 0.00 0.00 63 1021.0
20260903120806 26 308 3.2 4.8 0.00 0.00 0.00 63 1021.0
20260903120306 26 312 3.2 9.7 0.00 0.00 0.00 65 1021.0
20260903115805 26 291 3.2 14.5 0.00 0.00 0.00 66 1021.0
20260903115306 26 296 3.2 4.8 0.00 0.00 0.00 66 1021.0
20260903114806 26 280 3.2 11.3 0.00 0.00 0.00 69 1021.0
20260903114305 26 275 8.0 19.3 0.00 0.00 0.00 66 1021.0
20260903112805 25 305 4.8 16.1 0.00 0.00 0.00 68 1021.0